Weather observations for the past three days for
Shelton, Shelton Sanderson Field
Imperial (Metric)
Date Time (pdt) Wind (mph) Vis. (mi.) Weather Sky Cond. Temperature (ºF) Relative Humidity Wind Chill (°F) Heat Index (°F) Pressure Precipitation (in)
Air Dwpt 6 hour altimeter (in) sea level (mb) 1 hr 3 hr 6 hr
Max. Min.
09 04:53 Calm 10.00 Fair CLR 39.9 39.9 50 39 100% 30.18 1022.2
09 03:53 Calm 1.00 Fog/Mist VV002 41 41 100% 30.19 1022.4
09 02:53 Calm 0.50 Fog VV001 42.1 42.1 100% 30.19 1022.5
09 01:53 N 3 10.00 Fair CLR 46 46 100% 30.19 1022.7
09 00:53 Calm 10.00 Overcast OVC028 48 46.9 96% 30.2 1022.7
08 23:53 W 3 10.00 Fair CLR 46 45 96% 30.19 1022.5
08 22:53 W 6 10.00 Fair CLR 50 46.9 60.1 50 89% 48 30.18 1022.2
08 21:53 W 13 10.00 Fair CLR 51.1 48 89% 30.18 1022.0
08 20:53 SW 8 10.00 Partly Cloudy SCT065 52 48 86% 30.17 1021.8
08 19:53 W 12 G 23 10.00 Overcast OVC065 55 46.9 74% 30.16 1021.3
08 18:53 W 20 G 29 10.00 Partly Cloudy SCT070 57 46 67% 30.15 1021.1
08 17:53 SW 17 G 25 10.00 Mostly Cloudy FEW030 BKN075 57 45 64% 30.16 1021.3
08 16:53 W 18 G 29 10.00 A Few Clouds FEW075 60.1 45 62.1 52 58% 30.15 1021.3
08 15:53 SW 18 G 26 10.00 Partly Cloudy SCT036 60.1 44.1 56% 30.15 1021.1
08 14:53 SW 15 G 25 10.00 Mostly Cloudy BKN036 61 44.1 54% 30.15 1021.1
08 13:53 W 16 10.00 Overcast OVC039 57.9 42.1 56% 30.15 1021.0
08 12:53 W 14 G 23 10.00 Overcast OVC036 57 42.1 58% 30.14 1020.7
08 11:53 W 16 G 25 10.00 Overcast OVC031 54 43 67% 30.13 1020.5
08 10:53 SW 14 G 24 10.00 Overcast OVC029 52 43 52 46 72% 30.12 1020.3
08 09:53 SW 15 10.00 Overcast OVC029 51.1 42.1 71% 30.1 1019.6
08 08:53 SW 16 G 23 10.00 Fair CLR 51.1 43 74% 30.09 1019.2
08 07:53 SW 13 10.00 Fair CLR 50 42.1 74% 46 30.08 1018.5
08 06:53 SW 14 10.00 Fair CLR 48 43 83% 43 30.06 1018.1
08 05:53 SW 13 10.00 Fair CLR 46.9 43 86% 42 30.04 1017.3
08 04:53 W 8 10.00 Fair CLR 46.9 43 50 46 86% 44 30.04 1017.3
08 03:53 SW 10 10.00 Fair CLR 46.9 43 86% 43 30.03 1016.8
08 02:53 W 12 10.00 Fair CLR 46.9 42.1 83% 42 30.01 1016.4
08 01:53 W 8 10.00 Fair CLR 46.9 43 86% 44 30.01 1016.4
08 00:53 W 12 10.00 Fair CLR 48 43 83% 44 30.01 1016.4
07 23:53 W 5 10.00 Fair CLR 48 43 83% 47 30.01 1016.3
07 22:53 W 9 10.00 Fair CLR 50 44.1 66.9 50 80% 47 30.02 1016.7
07 21:53 W 10 10.00 Fair CLR 52 44.1 75% 30.02 1016.7
07 20:53 W 10 10.00 Fair CLR 54 45 72% 30.02 1016.7
07 19:53 S 8 10.00 Fair CLR 59 46 62% 30 1016.2
07 18:53 W 8 10.00 Fair CLR 64.9 44.1 47% 30 1015.9
07 17:53 Vrbl 3 10.00 A Few Clouds FEW050 66 44.1 45% 30.01 1016.3
07 16:53 Calm 10.00 Fair CLR 66 44.1 66 55.9 45% 30.02 1016.7
07 15:53 Calm 10.00 A Few Clouds FEW046 64.9 45 49% 30.04 1017.5
07 14:53 Calm 10.00 Mostly Cloudy BKN045 63 45 52% 30.06 1018.1
07 13:53 Vrbl 5 10.00 Mostly Cloudy BKN045 62.1 43 50% 30.08 1018.6
07 12:53 Vrbl 7 10.00 Mostly Cloudy BKN041 62.1 45 54% 30.09 1019.2
07 11:53 Vrbl 3 10.00 Mostly Cloudy BKN035 59 44.1 58% 30.1 1019.5
07 10:53 S 6 10.00 Mostly Cloudy FEW026 BKN034 57 45 57 46.9 64% 30.11 1019.8
07 09:53 W 8 10.00 Overcast FEW023 OVC033 53.1 43 69% 30.12 1020.2
07 08:53 W 7 10.00 Overcast BKN023 OVC035 50 43 77% 48 30.13 1020.4
07 07:53 W 8 10.00 Overcast OVC023 48.9 43 80% 46 30.13 1020.5
07 06:53 W 5 10.00 Overcast OVC023 48 42.1 80% 47 30.12 1020.1
07 05:53 W 7 10.00 Overcast OVC034 48 42.1 80% 45 30.12 1020.0
07 04:53 SW 8 10.00 Overcast OVC024 48 43 52 48 83% 45 30.13 1020.3
07 03:53 SW 9 10.00 Overcast OVC025 48 43 83% 44 30.13 1020.5
07 02:53 SW 9 10.00 Overcast SCT024 OVC038 48 44.1 86% 44 30.13 1020.5
07 01:53 SW 13 10.00 Overcast BKN026 OVC036 48.9 45 86% 44 30.13 1020.6
07 00:53 SW 10 10.00 Overcast OVC020 51.1 46 83% 30.13 1020.5
06 23:53 W 10 10.00 Overcast OVC019 51.1 46 83% 30.12 1020.3
06 22:53 W 13 10.00 Overcast OVC021 52 46 57.9 52 80% 30.12 1020.3
06 21:53 SW 15 10.00 Overcast OVC025 53.1 46 77% 30.13 1020.4
06 20:53 W 12 10.00 Overcast OVC033 53.1 46.9 80% 30.12 1020.1
06 19:53 SW 16 10.00 Overcast OVC020 54 48 80% 30.11 1019.7
06 18:53 SW 16 G 25 10.00 Overcast OVC019 55 48 77% 30.11 1019.7
06 17:53 SW 13 10.00 Overcast OVC019 55.9 48 75% 30.11 1019.8
06 16:53 SW 16 G 24 10.00 Overcast OVC023 57.9 48 57.9 53.1 70% 30.11 1019.6
06 15:53 W 14 10.00 Overcast OVC023 57.9 46.9 67% 30.12 1019.9
06 14:53 SW 18 10.00 Overcast OVC022 57 48 72% 30.12 1020.1
06 13:53 SW 15 G 23 10.00 Overcast OVC018 55.9 48 75% 30.12 1020.1
06 12:53 SW 16 G 28 10.00 Overcast SCT017 OVC024 55 48 77% 30.12 1020.0
06 11:53 SW 15 10.00 Overcast OVC017 53.1 46.9 80% 30.11 1019.9
06 10:53 SW 16 10.00 Overcast OVC017 53.1 46 54 50 77% 30.11 1019.9
06 09:53 SW 17 G 25 10.00 Overcast OVC014 52 46 80% 30.1 1019.5
06 08:53 SW 13 10.00 Overcast OVC012 51.1 46.9 86% 30.1 1019.5
06 07:53 SW 10 G 21 7.00 Overcast OVC011 50 48 93% 46 30.09 1019.2
06 06:53 SW 8 10.00 Overcast OVC012 51.1 48 89% 30.08 1018.8
06 05:53 SW 9 9.00 Overcast OVC012 51.1 48.9 92% 30.07 1018.3
Date Time (pdt) Wind (mph) Vis. (mi.) Weather Sky Cond. Air Dwpt Max. Min. Relative Humidity Wind Chill (°F) Heat Index (°F) altimeter (in) sea level (mb) 1 hr 3 hr 6 hr
6 hour
Temperature (ºF) Pressure Precipitation (in)